Location: Ostrava
(49.8333°N, 18.2833°E)
Time: 05:37:17
(UTC+02:00)

ISS - Visible Passes

Search period start: 23 September 2017 00:00
Search period end: 03 October 2017 00:00
Orbit: 401 x 407 km, 51.6° (Epoch: 23 September)

Date Brightness Start Highest point End Pass type
(mag) Time Alt. Az. Time Alt. Az. Time Alt. Az.
25 Sep -1.5 19:46:17 10° SSE 19:46:46 11° SSE 19:46:46 11° SSE visible
26 Sep -2.2 20:28:05 10° SW 20:29:49 24° SSW 20:29:49 24° SSW visible
27 Sep -2.4 19:36:18 10° SSW 19:38:53 22° SE 19:39:58 18° ESE visible
27 Sep -1.2 21:11:45 10° WSW 21:12:38 17° WSW 21:12:38 17° WSW visible
28 Sep -3.8 20:19:26 10° SW 20:22:37 60° SSE 20:22:37 60° SSE visible
29 Sep -3.2 19:27:17 10° SW 19:30:21 39° SSE 19:32:28 17° E visible
29 Sep -1.8 21:03:27 10° W 21:05:07 27° W 21:05:07 27° W visible
30 Sep -3.9 20:11:00 10° WSW 20:14:17 88° NNW 20:14:51 58° ENE visible
01 Oct -3.8 19:18:37 10° WSW 19:21:52 68° SSE 19:24:31 15° ENE visible
01 Oct -2.1 20:55:10 10° W 20:57:10 33° WNW 20:57:10 33° WNW visible
02 Oct -3.7 20:02:39 10° W 20:05:56 67° N 20:06:45 44° ENE visible
02 Oct -0.3 21:39:17 10° WNW 21:39:24 11° WNW 21:39:24 11° WNW visible
